Lexington Weather

Lexington, Massachusetts, USA

27°F
2/26/2021 8:26am 
  • Lexington Conditions: Clear
  • Temperature: 27.0°F / -2.8°CWarmer 2.4°F than last hour.
  • Dew Point: 17.1°FIncreased 1.8°Fsince last hour.
  • Relative Humidity: 66%Decreased 1.0% since last hour.
  • Wind: Wind from NNW NNW 1 mph, 10-min avg: 1 mph, gust: 3 mph
  • Barometer: 30.37 inRising 0.03  inHg/hr Rising Slowly
  • Visibility: 10 miles
  • Snow Today: 0.0 in
  •   

Regional Weather Roundup
for Boston / Norton, MA

        
000
ASUS41 KBOX 221804
RWRBOX

REGIONAL WEATHER ROUNDUP
NATIONAL WEATHER SERVICE BOSTON/NORTON MA
100 PM EST MON FEB 22 2021

NOTE:  "FAIR" INDICATES FEW OR NO CLOUDS BELOW 12,000 FEET WITH NO 
SIGNIFICANT WEATHER AND/OR OBSTRUCTIONS TO VISIBILITY.

MAZALL-221900-
EASTERN MASSACHUSETTS
  
CITY           SKY/WX    TMP DP  RH WIND       PRES   REMARKS
BOSTON         CLOUDY    37  27  67 S22       30.04F WCI  26          
6HR MIN TEMP:  25; 6HR MAX TEMP:  38;                                

BEVERLY        PTSUNNY   39  27  62 S13G25    30.03F WCI  31          
LAWRENCE       CLOUDY    38  26  62 S12G20    30.03F WCI  30          
BEDFORD        PTSUNNY   39  26  59 S10       30.01F                  
BLUE HILL        N/A     36  28  73 S20G36    30.00F WCI  25          
NORWOOD        PTSUNNY   40  28  62 S14G23    30.04F                  
MARSHFIELD     CLOUDY    41  30  65 S15G28    30.06F                  
PLYMOUTH       PTSUNNY   38  29  70 S12G18    30.05F WCI  30          
TAUNTON        CLOUDY    40  29  64 S13G21    30.05F                  
NEW BEDFORD    PTSUNNY   41  30  65 S10       30.06F                  
$$

MAZALL-221900-
CAPE COD AND THE ISLANDS
  
CITY           SKY/WX    TMP DP  RH WIND       PRES   REMARKS
FALMOUTH       MOSUNNY   37  30  75 S15G24    30.08F WCI  28          
HYANNIS        PTSUNNY   39  32  76 S12G18    30.07F WCI  32          
CHATHAM        PTSUNNY   39  31  72 S12G25    30.12F WCI  32          
PROVINCETOWN   PTSUNNY   39  31  72 S16G24    30.09F WCI  30          
NANTUCKET      CLOUDY    38  33  82 SE18      30.11F WCI  28          
MARTHAS VNYRD  PTSUNNY   40  33  76 S15       30.09F WCI  32          
$$
 
MAZALL-221900-
CENTRAL AND WESTERN MASSACHUSETTS
  
CITY           SKY/WX    TMP DP  RH WIND       PRES   REMARKS
WORCESTER      CLOUDY    35  24  64 S16G22    29.96F WCI  25          
6HR MIN TEMP:  22; 6HR MAX TEMP:  35;                                

FITCHBURG      CLOUDY    36  26  67 S12       30.00F WCI  28          
ORANGE         CLOUDY    34  24  67 S9G21     29.96F WCI  27          
SPRINGFIELD    FLURRIES  37  25  61 S13G22    29.95F WCI  29          
WESTFIELD      LGT SNOW  36  28  73 S14G30    29.95F WCI  27          
NORTH ADAMS    LGT SNOW  32  22  66 NE13G25   29.89F WCI  22          
PITTSFIELD     LGT SNOW  30  24  78 VRB7      29.85F VSB 1   WCI  23  
$$
 
RIZALL-221900-
RHODE ISLAND
  
CITY           SKY/WX    TMP DP  RH WIND       PRES   REMARKS
PROVIDENCE     CLOUDY    39  32  76 S13       30.05F WCI  31          
6HR MIN TEMP:  24; 6HR MAX TEMP:  39;                                

NEWPORT        PTSUNNY   39  34  82 S14G22    30.05F WCI  31          
BLOCK ISLAND   CLOUDY    40  33  76 S14       30.04F                  
SMITHFIELD     CLOUDY    39  31  72 S10G16    30.02F                  
WESTERLY       PTSUNNY   38  33  82 S7        30.03F                  
$$
 
CTZALL-221900-
CONNECTICUT
  
CITY           SKY/WX    TMP DP  RH WIND       PRES   REMARKS
BRADLEY INTL   LGT SNOW  37  27  67 S24G32    29.98F WCI  26          
6HR MIN TEMP:  22; 6HR MAX TEMP:  38; 6HR PCP: TRACE;                

HARTFORD       LGT RAIN  38  30  73 S15G29    30.00F WCI  29          
BRIDGEPORT     RAIN      37  33  85 S14       30.01F WCI  28          
DANBURY        HVY SNOW  35  31  85 S6        29.96F VSB 1/4 WCI  30  
GROTON         LGT RAIN  38  34  85 S10       30.03F WCI  31          
NEW HAVEN      LGT RAIN  39  34  82 S13       30.01F WCI  31          
CHESTER        MIX PCPN  37  34  87 S8G14     30.00F WCI  31          
MERIDEN        LGT RAIN  36  31  82 S15G21    30.00F WCI  27          
WILLIMANTIC    CLOUDY    39  29  67 S15G21    30.00F WCI  31          
OXFORD         SNOW      33  33 100 S13       29.97F VSB 1/2 WCI  24  
$$

MEZ002-015-021-024-NHZ003-005-008-011-012-014-VTZ005-008-221900-
NORTHERN NEW ENGLAND
  
CITY           SKY/WX    TMP DP  RH WIND       PRES   REMARKS
PORTLAND ME    CLOUDY    35  26  69 S16G30    30.05F WCI  25          
6HR MIN TEMP:  18; 6HR MAX TEMP:  35; 6HR PCP: TRACE;                

BANGOR ME      CLOUDY    29  17  61 S9        30.04F WCI  20          
CONCORD NH     CLOUDY    31  20  63 S10G18    30.00F WCI  22          
MANCHESTER NH  FLURRIES  36  22  56 S8        29.99F WCI  30          
NASHUA NH      CLOUDY    37  24  59 VRB7      30.01F WCI  32          
PORTSMOUTH NH  CLOUDY    35  24  62 S14       30.01F WCI  26          
JAFFREY NH     LGT SNOW  32  22  66 S15G24    29.94F WCI  22          
KEENE NH       LGT SNOW  31  27  85 S12       29.95F VSB 3/4 WCI  22  
BURLINGTON VT  LGT SNOW  31  21  66 S26G33    29.81F WCI  17          
MT. WASHINGTON NOT AVBL                                               
$$

NYZ052-076-221900-
EASTERN NEW YORK
  
CITY           SKY/WX    TMP DP  RH WIND       PRES   REMARKS
ALBANY         LGT SNOW  29  22  75 S25G36    29.87F WCI  14          
6HR MIN TEMP:  25; 6HR MAX TEMP:  30; 6HR PCP: TRACE;                

NEW YORK CITY  SNOW      33  31  92 S3        29.97F VSB 1/2          
6HR MIN TEMP:  33; 6HR MAX TEMP:  39; 6HR PCP:  0.13;                

$$
 
ANZALL-221900-
MARINE OBSERVATIONS
  
STATION/POSITION TIME  TEMP    WIND        PRES    VSBY  WAVE
                       AIR SEA DIR/SP/G                  HT/PER
                 (UTC) (F)     (DEG/KT/KT) (MB)    (MI)  (FT/S)
BOSTON BUOY      1740   38 39  180/ 17/ 23 1018.8F
BUZZARDS BAY     1700          160/ 14/ 16 1020.7F
NANTUCKET SOUND  1740      36  160/ 14/ 17   N/A
MASS BAY-STELLWA 1704   37     170/ 21/ 25 1018.2F  1 7/8  6/ 5
ISLE OF SHOALS   1700   36     190/ 27/ 31 1018.3F
S OF BLOCK IS    1726      38                N/A           4/10
$$

......................KEY.........................
  SKY/WX - SKY CONDITION/PRESENT WEATHER
  TMP    - TEMPERATURE IN FAHRENHEIT
  DWPT   - DEWPOINT IN FAHRENHEIT
  RH     - RELATIVE HUMIDITY IN PERCENT
  WIND   - DIRECTION AND SPEED IN MPH
  PRES   - MEAN SEA LEVEL PRESSURE IN INCHES OF HG
  WCI    - WIND CHILL INDEX
  VSB    - VISIBILITY IN MILES
  HX     - HEAT INDEX
  TC     - TEMPERATURE IN CELSIUS
  VRB    - VARIABLE WIND DIRECTION
  N/A    - NOT AVAILABLE
  
      

Other recent Regional Weather Roundups

Fri Feb 26, 8:04am

Fri Feb 26, 7:04am

Fri Feb 26, 6:04am

Fri Feb 26, 5:04am

Fri Feb 26, 4:04am

Fri Feb 26, 3:04am

Fri Feb 26, 2:04am

Fri Feb 26, 1:04am

Fri Feb 26, 12:04am

Thu Feb 25, 11:04pm

Thu Feb 25, 10:04pm

Thu Feb 25, 9:04pm

Thu Feb 25, 8:05pm

Thu Feb 25, 7:05pm

Thu Feb 25, 6:04pm

Thu Feb 25, 5:04pm

Thu Feb 25, 4:05pm

Thu Feb 25, 3:05pm

Thu Feb 25, 2:04pm

Thu Feb 25, 1:04pm

Thu Feb 25, 12:05pm

Thu Feb 25, 11:04am

Thu Feb 25, 10:04am

Thu Feb 25, 9:04am

Thu Feb 25, 8:04am

Thu Feb 25, 7:04am

Thu Feb 25, 6:04am

Thu Feb 25, 5:04am

Thu Feb 25, 4:04am

Thu Feb 25, 3:04am

Thu Feb 25, 2:04am

Thu Feb 25, 1:04am

Thu Feb 25, 12:04am

Wed Feb 24, 11:04pm

Wed Feb 24, 10:05pm

Wed Feb 24, 9:04pm

Wed Feb 24, 8:04pm

Wed Feb 24, 7:04pm

Wed Feb 24, 6:04pm

Wed Feb 24, 5:04pm

Wed Feb 24, 4:04pm

Wed Feb 24, 3:04pm

Wed Feb 24, 2:05pm

Wed Feb 24, 1:05pm

Wed Feb 24, 12:05pm

Wed Feb 24, 11:04am

Wed Feb 24, 10:04am

Wed Feb 24, 9:04am

Wed Feb 24, 8:04am

Wed Feb 24, 7:04am

Wed Feb 24, 6:04am

Wed Feb 24, 5:04am

Wed Feb 24, 4:04am

Wed Feb 24, 3:04am

Wed Feb 24, 2:04am

Wed Feb 24, 1:04am

Wed Feb 24, 12:04am

Tue Feb 23, 11:04pm

Tue Feb 23, 10:04pm

Tue Feb 23, 9:04pm

Tue Feb 23, 8:05pm

Tue Feb 23, 7:04pm

Tue Feb 23, 6:04pm

Tue Feb 23, 5:04pm

Tue Feb 23, 4:05pm

Tue Feb 23, 3:04pm

Tue Feb 23, 2:04pm

Tue Feb 23, 1:04pm

Tue Feb 23, 12:04pm

Tue Feb 23, 11:04am

Tue Feb 23, 10:04am

Tue Feb 23, 9:04am

Tue Feb 23, 7:04am

Tue Feb 23, 6:04am

Tue Feb 23, 5:04am

Tue Feb 23, 4:04am

Tue Feb 23, 3:04am

Tue Feb 23, 2:04am

Tue Feb 23, 1:04am

Tue Feb 23, 12:04am

Mon Feb 22, 11:04pm

Mon Feb 22, 10:04pm

Mon Feb 22, 9:04pm

Mon Feb 22, 8:04pm

Mon Feb 22, 7:04pm

Mon Feb 22, 6:04pm

Mon Feb 22, 5:04pm

Mon Feb 22, 4:05pm

Mon Feb 22, 3:04pm

Mon Feb 22, 2:05pm

Mon Feb 22, 12:05pm

Mon Feb 22, 11:04am

Mon Feb 22, 10:04am

Mon Feb 22, 9:05am

Mon Feb 22, 8:04am

Mon Feb 22, 7:04am

Mon Feb 22, 6:04am

Mon Feb 22, 5:04am

Mon Feb 22, 4:04am

Mon Feb 22, 3:04am

Mon Feb 22, 2:04am

Mon Feb 22, 1:04am

Mon Feb 22, 12:04am

Sun Feb 21, 11:04pm

Sun Feb 21, 10:05pm

Sun Feb 21, 9:04pm

Sun Feb 21, 8:04pm

Sun Feb 21, 7:04pm

Sun Feb 21, 6:04pm

Sun Feb 21, 5:04pm

Sun Feb 21, 4:05pm

Sun Feb 21, 3:04pm

Sun Feb 21, 2:04pm

Sun Feb 21, 1:05pm

Sun Feb 21, 12:05pm

Sun Feb 21, 11:04am

Sun Feb 21, 10:05am

Sun Feb 21, 9:04am

Sun Feb 21, 8:04am

Sun Feb 21, 7:04am

Sun Feb 21, 6:04am

Sun Feb 21, 5:04am

Sun Feb 21, 4:04am

Sun Feb 21, 3:04am

Sun Feb 21, 2:04am

Sun Feb 21, 1:04am

Sun Feb 21, 12:04am

Sat Feb 20, 11:04pm

Sat Feb 20, 10:04pm

Sat Feb 20, 9:04pm

Sat Feb 20, 8:04pm

Sat Feb 20, 7:04pm

Sat Feb 20, 6:04pm

Sat Feb 20, 5:04pm

Sat Feb 20, 4:05pm

Sat Feb 20, 3:04pm

Sat Feb 20, 2:04pm

Sat Feb 20, 1:05pm

Sat Feb 20, 12:05pm

Sat Feb 20, 11:04am

Sat Feb 20, 10:05am

Sat Feb 20, 9:04am

Sat Feb 20, 8:04am

Sat Feb 20, 7:04am

Sat Feb 20, 6:04am

Sat Feb 20, 5:04am

Sat Feb 20, 4:04am

Sat Feb 20, 3:04am

Sat Feb 20, 2:04am

Sat Feb 20, 1:04am

Sat Feb 20, 12:04am

Fri Feb 19, 11:04pm

Fri Feb 19, 10:05pm

Fri Feb 19, 9:04pm

Fri Feb 19, 8:04pm

Fri Feb 19, 7:04pm

Fri Feb 19, 6:04pm

Fri Feb 19, 5:04pm

Fri Feb 19, 4:05pm

Fri Feb 19, 3:04pm

Fri Feb 19, 2:04pm

Fri Feb 19, 1:05pm

Fri Feb 19, 12:05pm

Fri Feb 19, 11:04am

Fri Feb 19, 10:04am

Fri Feb 19, 9:04am

Meta data:

ID: 3c7aaf5f-c07c-41c7-9b03-e28299666e4e
Link: https://api.weather.gov/products/3c7aaf5f-c07c-41c7-9b03-e28299666e4e